Location: *
(32.8140°S, 174.6161°E)
Time: 09:22:28
(UTC+00:00)

SL-16 R/B - Pass Details

Date: 10 December 2019
Orbit: 985 x 1007 km, 99.4° (Epoch: 28 January)

Event Time Altitude Azimuth Distance (km) Brightness Sun altitude
Rises 16:14:32 0° 184° (S) 3,767 6.1 -10.1°
Reaches altitude 10° 16:17:39 10° 198° (SSW) 2,809 5.1 -9.6°
Maximum altitude 16:22:10 21° 244° (WSW) 2,096 4.0 -8.8°
Drops below altitude 10° 16:26:40 10° 290° (WNW) 2,783 4.3 -8.0°
Enters shadow 16:27:03 - 293° (WNW) 2,889 4.3 -7.9°
